Tracking 32110 objects as of 7-Nov-2025
HD Live streaming from Space Station
objects crossing your sky now

MOS 1B (MOMO 1B)

Track MOS 1B (MOMO 1B) now!
10-day predictions
MOS 1B (MOMO 1B) is classified as:


NORAD ID: 20478
Int'l Code: 1990-013A
Perigee: 910.1 km
Apogee: 919.4 km
Inclination: 99.3 °
Period: 103.2 minutes
Semi major axis: 7285 km
RCS: 3.7354 m2 (large)
Launch date: February 7, 1990
Source: Japan (JPN)
Launch site: TANEGASHIMA SPACE CENTER (TNSTA)
Your satellite tracking list
Your tracking list is empty




NASA's NSSDC Master Catalog

Two Line Element Set (TLE):
1 20478U 90013A   25311.16828285  .00000272  00000-0  23152-3 0  9993
2 20478  99.2534   6.7182 0006402  74.8778 285.3092 13.96011787741051
Source of the keplerian elements: AFSPC